Regional Weather Roundup
Issued by NWS Albany, NY

Home | Current Version | Previous Version | Text Only | Print | Product List | Glossary On
Versions: 1 2 3 4 5 6 7 8 9 10 11 12 13 14 15 16 17 18 19 20 21 22 23 24 25 26 27 28
000
ASUS41 KALY 270710
RWRALY

NEW YORK STATE HOURLY WEATHER ROUNDUP
NATIONAL WEATHER SERVICE ALBANY NY
300 AM EDT SAT AUG 27 2016

NOTE: "FAIR" INDICATES FEW OR NO CLOUDS BELOW 12,000 FEET WITH NO
SIGNIFICANT WEATHER AND/OR NO OBSTRUCTIONS TO VISIBILITY.

NYZ032-033-038>043-046>054-057>066-NYZ062>081-082-084-270800-
EAST


CITY           SKY/WX    TMP DP  RH WIND       PRES   REMARKS
ALBANY         CLEAR     67  60  78 CALM      30.13S
GLENS FALLS    CLEAR     62  59  90 CALM      30.13R
POUGHKEEPSIE   CLEAR     61  60  97 CALM      30.12R
NEWBURGH       CLEAR     64  63  94 CALM      30.15
MONTGOMERY     CLEAR     64  62  93 CALM      30.13R
WHITE PLAINS   CLEAR     68  60  75 N6        30.11S
ISLIP          CLEAR     73  60  63 N9        30.08R
NEW YORK CITY  CLEAR     79  62  56 N6        30.09R
CENTRAL PARK     N/A     73  63  68 MISG        N/A
$$

NYZ005>009-017-018-044>046-055-056-270800-
CENTRAL


CITY           SKY/WX    TMP DP  RH WIND       PRES   REMARKS
FULTON         CLEAR     63  61  93 CALM      30.15S
SYRACUSE       PTCLDY    66  62  87 S3        30.15S
ROME           CLEAR     62  61  96 CALM      30.17S
ELMIRA         CLEAR     63  61  93 CALM      30.18S
BINGHAMTON     CLEAR     66  63  90 W3        30.20R
MONTICELLO     CLEAR     61  61 100 CALM      30.19S
$$

NYZ026>034-041>043-087-270800-
NORTH


CITY           SKY/WX    TMP DP  RH WIND       PRES   REMARKS
WATERTOWN      MOCLDY    65  62  90 S5        30.13S
FORT DRUM      NOT AVBL
MASSENA        CLEAR     61  59  93 CALM      30.13R FOG
SARANAC LAKE   PTCLDY    54  52  93 CALM      30.17R FOG
PLATTSBURGH    MOCLDY    68  60  75 CALM      30.10S
$$

NYZ001>004-010>016-019>021-085-270800-
WEST


CITY           SKY/WX    TMP DP  RH WIND       PRES   REMARKS
NIAGARA FALLS  CLEAR     66  59  78 CALM      30.18S
BUFFALO        PTCLDY    67  63  87 NE3       30.18S
DUNKIRK        CLEAR     64  63  96 CALM      30.18S
JAMESTOWN      PTCLDY    59  55  88 CALM      30.22R
WELLSVILLE     FOG       58  57  97 CALM      30.25S VSB 1/4
ROCHESTER      PTCLDY    66  64  93 W3        30.18S
PENN YAN       CLEAR     70  62  76 W5        30.19R
$$

             KEY
       WCI = WIND CHILL INDEX
       VSB = VISIBILITY
       HX  = HEAT INDEX
$$




USA.gov is the U.S. government's official web portal to all federal, state and local government web resources and services.